Location: *
(47.7167°N, 1.7333°W)
Time: 19:57:52
(UTC+00:00)

SPOT 3 Rocket - Pass Details

Date: 09 April 2020
Orbit: 779 x 795 km, 98.8° (Epoch: 03 June)

Event Time Altitude Azimuth Distance (km) Brightness Sun altitude
Exits shadow 19:22:44 - 140° (SE) 3,005 6.0 -6.3°
Reaches altitude 10° 19:24:26 10° 135° (SE) 2,356 5.5 -6.6°
Maximum altitude 19:29:17 41° 66° (ENE) 1,134 4.1 -7.3°
Drops below altitude 10° 19:34:09 10° 358° (N) 2,363 6.4 -8.1°
Sets 19:36:35 0° 351° (N) 3,294 7.2 -8.5°
